Zurück zum Katalog

PSLV DEB

AktivSSO
NORAD 27580·DEBRIS·🇮🇳 India

Gestartet Oct 22, 2001 von Satish Dhawan Space Centre

Loading…

Nächste Überflüge (nächste 24 Stunden)

TLE

AlterndSource: Space-Track

Epoche: Sep 6, 2026, 08:19 UTC

1 27580U 01049MY  26249.34694739  .00000366  00000-0  57406-4 0  9995
2 27580  98.2488 289.9422 0044172  70.5888 290.0088 14.78228843292864

Verfolge PSLV DEB in Echtzeit mit AllMySat

Download on the App Store